owner,sensor,date,latitude,longitude,vertical_datum,sea_water_speed,direction_of_sea_water_velocity,upward_sea_water_velocity,qcFlag
BP,ioos:station:wmo:42369:4,2021-10-01T00:00:00Z,27.2136,-90.2734,1343.0,21.8,221.1,-9999.0,'111111111,111111111,999999991'
BP,ioos:station:wmo:42369:4,2021-10-01T00:20:00Z,27.2136,-90.2734,1343.0,19.7,222.7,-9999.0,'111111111,111111111,999999991'
BP,ioos:station:wmo:42369:4,2021-10-01T00:40:00Z,27.2136,-90.2734,1343.0,20.4,220.0,-9999.0,'111111111,111111111,999999991'
BP,ioos:station:wmo:42369:4,2021-10-01T01:00:00Z,27.2135,-90.2733,1343.0,19.4,226.0,-9999.0,'111111111,111111111,999999991'
BP,ioos:station:wmo:42369:4,2021-10-01T01:20:00Z,27.2136,-90.2734,1343.0,19.6,224.0,-9999.0,'111111111,111111111,999999991'
BP,ioos:station:wmo:42369:4,2021-10-01T01:40:00Z,27.2136,-90.2735,1343.0,16.6,227.0,-9999.0,'111111111,111111111,999999991'
BP,ioos:station:wmo:42369:4,2021-10-01T02:00:00Z,27.2137,-90.2735,1343.0,17.8,223.4,-9999.0,'111111111,111111111,999999991'
BP,ioos:station:wmo:42369:4,2021-10-01T02:20:00Z,27.2137,-90.2736,1343.0,16.6,226.7,-9999.0,'111111111,111111111,999999991'
BP,ioos:station:wmo:42369:4,2021-10-01T02:40:00Z,27.2137,-90.2736,1343.0,16.1,222.2,-9999.0,'111111111,111111111,999999991'
BP,ioos:station:wmo:42369:4,2021-10-01T03:00:00Z,27.2138,-90.2736,1343.0,14.8,222.0,-9999.0,'111111111,111111111,999999991'
BP,ioos:station:wmo:42369:4,2021-10-01T03:20:00Z,27.2138,-90.2736,1343.0,15.0,228.8,-9999.0,'111111111,111111111,999999991'
BP,ioos:station:wmo:42369:4,2021-10-01T05:20:00Z,27.2137,-90.2734,1343.0,11.8,219.5,-9999.0,'111111111,111111111,999999991'
BP,ioos:station:wmo:42369:4,2021-10-02T00:00:00Z,27.2138,-90.2735,1343.0,14.9,237.9,-9999.0,'111111111,111111111,999999991'
BP,ioos:station:wmo:42369:4,2021-10-02T02:00:00Z,27.2138,-90.2735,1343.0,18.7,230.2,-9999.0,'111111111,111111111,999999991'
BP,ioos:station:wmo:42369:4,2021-10-02T02:20:00Z,27.2136,-90.2734,1343.0,17.4,231.5,-9999.0,'111111111,111111111,999999991'
BP,ioos:station:wmo:42369:4,2021-10-02T02:40:00Z,27.2134,-90.2733,1343.0,18.3,231.9,-9999.0,'111111111,111111111,999999991'
BP,ioos:station:wmo:42369:4,2021-10-02T03:00:00Z,27.2133,-90.2733,1343.0,16.0,230.3,-9999.0,'111111111,111111111,999999991'
BP,ioos:station:wmo:42369:4,2021-10-02T03:20:00Z,27.2134,-90.2732,1343.0,14.5,234.2,-9999.0,'111111111,111111111,999999991'
BP,ioos:station:wmo:42369:4,2021-10-02T03:40:00Z,27.2134,-90.2732,1343.0,16.0,232.1,-9999.0,'111111111,111111111,999999991'
BP,ioos:station:wmo:42369:4,2021-10-02T04:00:00Z,27.2135,-90.2732,1343.0,15.6,227.3,-9999.0,'111111111,111111111,999999991'
BP,ioos:station:wmo:42369:4,2021-10-02T04:20:00Z,27.2136,-90.2733,1343.0,17.8,229.3,-9999.0,'111111111,111111111,999999991'
BP,ioos:station:wmo:42369:4,2021-10-02T04:40:00Z,27.2136,-90.2733,1343.0,15.4,232.9,-9999.0,'111111111,111111111,999999991'
BP,ioos:station:wmo:42369:4,2021-10-02T05:00:00Z,27.2136,-90.2733,1343.0,15.5,229.7,-9999.0,'111111111,111111111,999999991'
BP,ioos:station:wmo:42369:4,2021-10-02T05:20:00Z,27.2136,-90.2733,1343.0,14.6,225.8,-9999.0,'111111111,111111111,999999991'
BP,ioos:station:wmo:42369:4,2021-10-02T05:40:00Z,27.2136,-90.2733,1343.0,15.5,227.4,-9999.0,'111111111,111111111,999999991'
BP,ioos:station:wmo:42369:4,2021-10-02T06:00:00Z,27.2136,-90.2733,1343.0,14.1,220.7,-9999.0,'111111111,111111111,999999991'
BP,ioos:station:wmo:42369:4,2021-10-02T06:20:00Z,27.2136,-90.2733,1343.0,15.4,223.2,-9999.0,'111111111,111111111,999999991'
BP,ioos:station:wmo:42369:4,2021-10-02T06:40:00Z,27.2136,-90.2733,1343.0,15.8,220.1,-9999.0,'111111111,111111111,999999991'
BP,ioos:station:wmo:42369:4,2021-10-02T07:00:00Z,27.2137,-90.2734,1343.0,17.2,216.7,-9999.0,'111111111,111111111,999999991'
BP,ioos:station:wmo:42369:4,2021-10-02T07:20:00Z,27.2138,-90.2734,1343.0,18.0,218.0,-9999.0,'111111111,111111111,999999991'
BP,ioos:station:wmo:42369:4,2021-10-02T07:40:00Z,27.2138,-90.2735,1343.0,16.1,225.0,-9999.0,'111111111,111111111,999999991'
BP,ioos:station:wmo:42369:4,2021-10-02T08:00:00Z,27.2138,-90.2735,1343.0,16.5,226.2,-9999.0,'111111111,111111111,999999991'
BP,ioos:station:wmo:42369:4,2021-10-02T08:20:00Z,27.2138,-90.2735,1343.0,16.7,228.7,-9999.0,'111111111,111111111,999999991'
BP,ioos:station:wmo:42369:4,2021-10-02T08:40:00Z,27.2138,-90.2735,1343.0,16.4,221.3,-9999.0,'111111111,111111111,999999991'
BP,ioos:station:wmo:42369:4,2021-10-02T09:00:00Z,27.2138,-90.2735,1343.0,14.1,214.0,-9999.0,'111111111,111111111,999999991'
BP,ioos:station:wmo:42369:4,2021-10-02T09:20:00Z,27.2138,-90.2735,1343.0,13.6,213.3,-9999.0,'111111111,111111111,999999991'
BP,ioos:station:wmo:42369:4,2021-10-02T09:40:00Z,27.2138,-90.2735,1343.0,15.6,210.3,-9999.0,'111111111,111111111,999999991'
BP,ioos:station:wmo:42369:4,2021-10-02T17:20:00Z,27.2132,-90.2729,1343.0,20.5,225.4,-9999.0,'111111111,111111111,999999991'
BP,ioos:station:wmo:42369:4,2021-10-02T17:40:00Z,27.2129,-90.2728,1343.0,19.3,228.4,-9999.0,'111111111,111111111,999999991'
BP,ioos:station:wmo:42369:4,2021-10-02T18:00:00Z,27.2129,-90.2728,1343.0,17.8,232.7,-9999.0,'111111111,111111111,999999991'
BP,ioos:station:wmo:42369:4,2021-10-02T18:20:00Z,27.2130,-90.2728,1343.0,17.3,232.3,-9999.0,'111111111,111111111,999999991'
BP,ioos:station:wmo:42369:4,2021-10-02T18:40:00Z,27.2130,-90.2728,1343.0,17.1,237.4,-9999.0,'111111111,111111111,999999991'
BP,ioos:station:wmo:42369:4,2021-10-02T19:00:00Z,27.2130,-90.2728,1343.0,18.7,240.1,-9999.0,'111111111,111111111,999999991'
BP,ioos:station:wmo:42369:4,2021-10-02T19:20:00Z,27.2130,-90.2728,1343.0,18.6,243.6,-9999.0,'111111111,111111111,999999991'
BP,ioos:station:wmo:42369:4,2021-10-02T19:40:00Z,27.2129,-90.2727,1343.0,18.6,242.1,-9999.0,'111111111,111111111,999999991'
BP,ioos:station:wmo:42369:4,2021-10-02T20:00:00Z,27.2129,-90.2727,1343.0,17.9,244.9,-9999.0,'111111111,111111111,999999991'
BP,ioos:station:wmo:42369:4,2021-10-02T20:20:00Z,27.2129,-90.2727,1343.0,15.7,244.7,-9999.0,'111111111,111111111,999999991'
BP,ioos:station:wmo:42369:4,2021-10-02T20:40:00Z,27.2129,-90.2727,1343.0,15.5,248.1,-9999.0,'111111111,111111111,999999991'
BP,ioos:station:wmo:42369:4,2021-10-02T21:00:00Z,27.2129,-90.2728,1343.0,16.1,248.1,-9999.0,'111111111,111111111,999999991'
BP,ioos:station:wmo:42369:4,2021-10-02T21:20:00Z,27.2129,-90.2728,1343.0,15.6,246.6,-9999.0,'111111111,111111111,999999991'
BP,ioos:station:wmo:42369:4,2021-10-02T21:40:00Z,27.2129,-90.2728,1343.0,15.7,250.3,-9999.0,'111111111,111111111,999999991'
BP,ioos:station:wmo:42369:4,2021-10-02T22:00:00Z,27.2129,-90.2728,1343.0,16.7,250.4,-9999.0,'111111111,111111111,999999991'
BP,ioos:station:wmo:42369:4,2021-10-02T22:20:00Z,27.2129,-90.2728,1343.0,17.5,246.8,-9999.0,'111111111,111111111,999999991'
BP,ioos:station:wmo:42369:4,2021-10-02T22:40:00Z,27.2129,-90.2728,1343.0,16.5,250.9,-9999.0,'111111111,111111111,999999991'
BP,ioos:station:wmo:42369:4,2021-10-02T23:00:00Z,27.2129,-90.2728,1343.0,16.1,245.0,-9999.0,'111111111,111111111,999999991'
BP,ioos:station:wmo:42369:4,2021-10-02T23:20:00Z,27.2129,-90.2728,1343.0,14.2,242.7,-9999.0,'111111111,111111111,999999991'
BP,ioos:station:wmo:42369:4,2021-10-03T00:40:00Z,27.2129,-90.2728,1343.0,16.4,251.1,-9999.0,'111111111,111111111,999999991'
BP,ioos:station:wmo:42369:4,2021-10-03T01:00:00Z,27.2129,-90.2728,1343.0,14.7,254.2,-9999.0,'111111111,111111111,999999991'
BP,ioos:station:wmo:42369:4,2021-10-03T01:20:00Z,27.2129,-90.2728,1343.0,14.6,252.9,-9999.0,'111111111,111111111,999999991'
BP,ioos:station:wmo:42369:4,2021-10-03T01:40:00Z,27.2129,-90.2728,1343.0,13.1,265.2,-9999.0,'111111111,111111111,999999991'
BP,ioos:station:wmo:42369:4,2021-10-03T02:00:00Z,27.2132,-90.2729,1343.0,12.6,251.6,-9999.0,'111111111,111111111,999999991'
BP,ioos:station:wmo:42369:4,2021-10-03T02:20:00Z,27.2129,-90.2728,1343.0,12.4,247.2,-9999.0,'111111111,111111111,999999991'
BP,ioos:station:wmo:42369:4,2021-10-03T02:40:00Z,27.2129,-90.2728,1343.0,10.0,243.9,-9999.0,'111111111,111111111,999999991'
BP,ioos:station:wmo:42369:4,2021-10-03T03:00:00Z,27.2128,-90.2728,1343.0,9.9,241.1,-9999.0,'111111111,111111111,999999991'
BP,ioos:station:wmo:42369:4,2021-10-03T03:20:00Z,27.2128,-90.2728,1343.0,9.9,220.5,-9999.0,'111111111,111111111,999999991'
BP,ioos:station:wmo:42369:4,2021-10-03T03:40:00Z,27.2128,-90.2728,1343.0,11.8,224.0,-9999.0,'111111111,111111111,999999991'
BP,ioos:station:wmo:42369:4,2021-10-03T04:20:00Z,27.2127,-90.2727,1343.0,11.3,227.5,-9999.0,'111111111,111111111,999999991'
BP,ioos:station:wmo:42369:4,2021-10-03T04:40:00Z,27.2127,-90.2727,1343.0,12.6,233.4,-9999.0,'111111111,111111111,999999991'
BP,ioos:station:wmo:42369:4,2021-10-03T05:00:00Z,27.2125,-90.2726,1343.0,12.1,238.1,-9999.0,'111111111,111111111,999999991'
BP,ioos:station:wmo:42369:4,2021-10-03T05:20:00Z,27.2125,-90.2726,1343.0,12.1,243.4,-9999.0,'111111111,111111111,999999991'
BP,ioos:station:wmo:42369:4,2021-10-03T05:40:00Z,27.2124,-90.2725,1343.0,11.7,244.1,-9999.0,'111111111,111111111,999999991'
BP,ioos:station:wmo:42369:4,2021-10-03T06:00:00Z,27.2124,-90.2726,1343.0,11.4,243.0,-9999.0,'111111111,111111111,999999991'
BP,ioos:station:wmo:42369:4,2021-10-03T06:20:00Z,27.2124,-90.2726,1343.0,14.1,236.0,-9999.0,'111111111,111111111,999999991'
BP,ioos:station:wmo:42369:4,2021-10-03T06:40:00Z,27.2124,-90.2725,1343.0,14.1,234.5,-9999.0,'111111111,111111111,999999991'
BP,ioos:station:wmo:42369:4,2021-10-03T07:00:00Z,27.2125,-90.2726,1343.0,12.3,241.4,-9999.0,'111111111,111111111,999999991'
BP,ioos:station:wmo:42369:4,2021-10-03T08:00:00Z,27.2132,-90.2730,1343.0,12.3,249.1,-9999.0,'111111111,111111111,999999991'
BP,ioos:station:wmo:42369:4,2021-10-03T08:20:00Z,27.2125,-90.2727,1343.0,13.2,249.6,-9999.0,'111111111,111111111,999999991'
BP,ioos:station:wmo:42369:4,2021-10-03T08:40:00Z,27.2125,-90.2727,1343.0,12.8,257.8,-9999.0,'111111111,111111111,999999991'
BP,ioos:station:wmo:42369:4,2021-10-03T09:00:00Z,27.2127,-90.2729,1343.0,10.4,245.6,-9999.0,'111111111,111111111,999999991'
BP,ioos:station:wmo:42369:4,2021-10-03T09:20:00Z,27.2125,-90.2728,1343.0,12.3,258.2,-9999.0,'111111111,111111111,999999991'
BP,ioos:station:wmo:42369:4,2021-10-03T09:40:00Z,27.2125,-90.2728,1343.0,8.9,270.0,-9999.0,'111111111,111111111,999999991'
BP,ioos:station:wmo:42369:4,2021-10-03T10:00:00Z,27.2125,-90.2727,1343.0,12.0,259.0,-9999.0,'111111111,111111111,999999991'
BP,ioos:station:wmo:42369:4,2021-10-03T10:20:00Z,27.2124,-90.2727,1343.0,10.4,246.1,-9999.0,'111111111,111111111,999999991'
BP,ioos:station:wmo:42369:4,2021-10-03T10:40:00Z,27.2123,-90.2726,1343.0,10.2,252.8,-9999.0,'111111111,111111111,999999991'
BP,ioos:station:wmo:42369:4,2021-10-03T11:00:00Z,27.2123,-90.2726,1343.0,9.5,251.0,-9999.0,'111111111,111111111,999999991'
BP,ioos:station:wmo:42369:4,2021-10-03T11:20:00Z,27.2122,-90.2726,1343.0,13.2,252.4,-9999.0,'111111111,111111111,999999991'
BP,ioos:station:wmo:42369:4,2021-10-03T12:00:00Z,27.2131,-90.2730,1343.0,12.4,249.7,-9999.0,'111111111,111111111,999999991'
BP,ioos:station:wmo:42369:4,2021-10-03T13:00:00Z,27.2120,-90.2723,1343.0,12.3,253.5,-9999.0,'111111111,111111111,999999991'
BP,ioos:station:wmo:42369:4,2021-10-03T13:20:00Z,27.2120,-90.2723,1343.0,11.3,249.3,-9999.0,'111111111,111111111,999999991'
BP,ioos:station:wmo:42369:4,2021-10-03T14:00:00Z,27.2133,-90.2732,1343.0,9.3,245.1,-9999.0,'111111111,111111111,999999991'
BP,ioos:station:wmo:42369:4,2021-10-03T15:20:00Z,27.2121,-90.2723,1343.0,15.0,248.1,-9999.0,'111111111,111111111,999999991'
BP,ioos:station:wmo:42369:4,2021-10-03T15:40:00Z,27.2120,-90.2723,1343.0,15.3,249.3,-9999.0,'111111111,111111111,999999991'
BP,ioos:station:wmo:42369:4,2021-10-03T16:00:00Z,27.2132,-90.2731,1343.0,15.7,245.2,-9999.0,'111111111,111111111,999999991'
BP,ioos:station:wmo:42369:4,2021-10-03T16:20:00Z,27.2132,-90.2731,1343.0,14.5,242.6,-9999.0,'111111111,111111111,999999991'
BP,ioos:station:wmo:42369:4,2021-10-03T16:40:00Z,27.2132,-90.2730,1343.0,15.1,241.1,-9999.0,'111111111,111111111,999999991'
BP,ioos:station:wmo:42369:4,2021-10-03T17:00:00Z,27.2132,-90.2729,1343.0,15.3,242.8,-9999.0,'111111111,111111111,999999991'
BP,ioos:station:wmo:42369:4,2021-10-03T17:20:00Z,27.2130,-90.2728,1343.0,15.6,246.6,-9999.0,'111111111,111111111,999999991'
BP,ioos:station:wmo:42369:4,2021-10-03T17:40:00Z,27.2129,-90.2728,1343.0,14.9,247.1,-9999.0,'111111111,111111111,999999991'
BP,ioos:station:wmo:42369:4,2021-10-03T18:00:00Z,27.2130,-90.2728,1343.0,16.1,244.7,-9999.0,'111111111,111111111,999999991'
BP,ioos:station:wmo:42369:4,2021-10-03T18:20:00Z,27.2130,-90.2728,1343.0,14.7,248.9,-9999.0,'111111111,111111111,999999991'
BP,ioos:station:wmo:42369:4,2021-10-03T18:40:00Z,27.2130,-90.2728,1343.0,16.2,253.1,-9999.0,'111111111,111111111,999999991'
BP,ioos:station:wmo:42369:4,2021-10-03T19:00:00Z,27.2129,-90.2727,1343.0,15.2,256.7,-9999.0,'111111111,111111111,999999991'
BP,ioos:station:wmo:42369:4,2021-10-03T19:20:00Z,27.2129,-90.2727,1343.0,16.3,254.0,-9999.0,'111111111,111111111,999999991'
BP,ioos:station:wmo:42369:4,2021-10-03T19:40:00Z,27.2129,-90.2727,1343.0,17.3,245.4,-9999.0,'111111111,111111111,999999991'
BP,ioos:station:wmo:42369:4,2021-10-03T20:00:00Z,27.2129,-90.2727,1343.0,16.6,248.4,-9999.0,'111111111,111111111,999999991'
BP,ioos:station:wmo:42369:4,2021-10-03T20:20:00Z,27.2129,-90.2727,1343.0,16.3,247.2,-9999.0,'111111111,111111111,999999991'
BP,ioos:station:wmo:42369:4,2021-10-03T20:40:00Z,27.2129,-90.2728,1343.0,15.1,244.5,-9999.0,'111111111,111111111,999999991'
BP,ioos:station:wmo:42369:4,2021-10-03T21:00:00Z,27.2129,-90.2728,1343.0,15.1,251.9,-9999.0,'111111111,111111111,999999991'
BP,ioos:station:wmo:42369:4,2021-10-03T21:20:00Z,27.2129,-90.2728,1343.0,16.3,248.8,-9999.0,'111111111,111111111,999999991'
BP,ioos:station:wmo:42369:4,2021-10-03T21:40:00Z,27.2129,-90.2728,1343.0,15.8,250.0,-9999.0,'111111111,111111111,999999991'
BP,ioos:station:wmo:42369:4,2021-10-03T22:00:00Z,27.2129,-90.2728,1343.0,15.9,245.0,-9999.0,'111111111,111111111,999999991'
BP,ioos:station:wmo:42369:4,2021-10-03T22:20:00Z,27.2129,-90.2728,1343.0,14.4,253.1,-9999.0,'111111111,111111111,999999991'
BP,ioos:station:wmo:42369:4,2021-10-03T22:40:00Z,27.2129,-90.2728,1343.0,16.2,247.9,-9999.0,'111111111,111111111,999999991'
BP,ioos:station:wmo:42369:4,2021-10-03T23:00:00Z,27.2129,-90.2728,1343.0,15.9,250.2,-9999.0,'111111111,111111111,999999991'
BP,ioos:station:wmo:42369:4,2021-10-03T23:20:00Z,27.2129,-90.2728,1343.0,15.4,255.7,-9999.0,'111111111,111111111,999999991'
BP,ioos:station:wmo:42369:4,2021-10-03T23:40:00Z,27.2129,-90.2728,1343.0,16.2,250.6,-9999.0,'111111111,111111111,999999991'
BP,ioos:station:wmo:42369:4,2021-10-04T00:00:00Z,27.2129,-90.2728,1343.0,15.0,255.7,-9999.0,'111111111,111111111,999999991'
BP,ioos:station:wmo:42369:4,2021-10-04T00:20:00Z,27.2129,-90.2728,1343.0,15.1,260.1,-9999.0,'111111111,111111111,999999991'
BP,ioos:station:wmo:42369:4,2021-10-04T00:40:00Z,27.2129,-90.2728,1343.0,13.8,262.1,-9999.0,'111111111,111111111,999999991'
BP,ioos:station:wmo:42369:4,2021-10-04T01:00:00Z,27.2128,-90.2728,1343.0,13.8,254.9,-9999.0,'111111111,111111111,999999991'
BP,ioos:station:wmo:42369:4,2021-10-04T01:20:00Z,27.2128,-90.2728,1343.0,14.1,251.4,-9999.0,'111111111,111111111,999999991'
BP,ioos:station:wmo:42369:4,2021-10-04T01:40:00Z,27.2127,-90.2728,1343.0,14.3,247.0,-9999.0,'111111111,111111111,999999991'
BP,ioos:station:wmo:42369:4,2021-10-04T02:00:00Z,27.2127,-90.2728,1343.0,14.4,248.4,-9999.0,'111111111,111111111,999999991'
BP,ioos:station:wmo:42369:4,2021-10-04T02:20:00Z,27.2126,-90.2727,1343.0,14.6,243.6,-9999.0,'111111111,111111111,999999991'
BP,ioos:station:wmo:42369:4,2021-10-04T02:40:00Z,27.2125,-90.2726,1343.0,14.7,245.5,-9999.0,'111111111,111111111,999999991'
BP,ioos:station:wmo:42369:4,2021-10-04T03:00:00Z,27.2125,-90.2726,1343.0,14.6,241.3,-9999.0,'111111111,111111111,999999991'
BP,ioos:station:wmo:42369:4,2021-10-04T03:20:00Z,27.2125,-90.2726,1343.0,13.8,240.1,-9999.0,'111111111,111111111,999999991'
BP,ioos:station:wmo:42369:4,2021-10-04T03:40:00Z,27.2124,-90.2725,1343.0,15.5,243.1,-9999.0,'111111111,111111111,999999991'
BP,ioos:station:wmo:42369:4,2021-10-04T04:00:00Z,27.2124,-90.2725,1343.0,14.3,238.4,-9999.0,'111111111,111111111,999999991'
BP,ioos:station:wmo:42369:4,2021-10-04T04:20:00Z,27.2124,-90.2726,1343.0,14.0,237.0,-9999.0,'111111111,111111111,999999991'
BP,ioos:station:wmo:42369:4,2021-10-04T04:40:00Z,27.2124,-90.2726,1343.0,13.9,239.7,-9999.0,'111111111,111111111,999999991'
BP,ioos:station:wmo:42369:4,2021-10-04T05:00:00Z,27.2124,-90.2725,1343.0,14.4,241.8,-9999.0,'111111111,111111111,999999991'
BP,ioos:station:wmo:42369:4,2021-10-04T05:20:00Z,27.2125,-90.2726,1343.0,15.2,252.4,-9999.0,'111111111,111111111,999999991'
BP,ioos:station:wmo:42369:4,2021-10-04T05:40:00Z,27.2125,-90.2727,1343.0,15.0,247.7,-9999.0,'111111111,111111111,999999991'
BP,ioos:station:wmo:42369:4,2021-10-04T06:00:00Z,27.2125,-90.2727,1343.0,15.8,249.6,-9999.0,'111111111,111111111,999999991'
BP,ioos:station:wmo:42369:4,2021-10-04T06:20:00Z,27.2125,-90.2727,1343.0,15.0,251.7,-9999.0,'111111111,111111111,999999991'
BP,ioos:station:wmo:42369:4,2021-10-04T06:40:00Z,27.2125,-90.2727,1343.0,16.0,250.3,-9999.0,'111111111,111111111,999999991'
BP,ioos:station:wmo:42369:4,2021-10-04T07:00:00Z,27.2126,-90.2728,1343.0,14.3,276.4,-9999.0,'111111111,111111111,999999991'
BP,ioos:station:wmo:42369:4,2021-10-04T07:20:00Z,27.2127,-90.2728,1343.0,11.0,283.7,-9999.0,'111111111,111111111,999999991'
BP,ioos:station:wmo:42369:4,2021-10-04T07:40:00Z,27.2127,-90.2729,1343.0,10.3,288.1,-9999.0,'111111111,111111111,999999991'
BP,ioos:station:wmo:42369:4,2021-10-04T08:20:00Z,27.2126,-90.2728,1343.0,7.9,300.5,-9999.0,'111111111,111111111,999999991'
BP,ioos:station:wmo:42369:4,2021-10-04T08:40:00Z,27.2125,-90.2728,1343.0,6.8,298.1,-9999.0,'111111111,111111111,999999991'
BP,ioos:station:wmo:42369:4,2021-10-04T09:00:00Z,27.2126,-90.2728,1343.0,7.8,299.2,-9999.0,'111111111,111111111,999999991'
BP,ioos:station:wmo:42369:4,2021-10-04T09:20:00Z,27.2125,-90.2727,1343.0,7.2,290.5,-9999.0,'111111111,111111111,999999991'
BP,ioos:station:wmo:42369:4,2021-10-04T09:40:00Z,27.2124,-90.2727,1343.0,6.8,301.1,-9999.0,'111111111,111111111,999999991'
BP,ioos:station:wmo:42369:4,2021-10-04T10:00:00Z,27.2124,-90.2726,1343.0,7.8,307.7,-9999.0,'111111111,111111111,999999991'
BP,ioos:station:wmo:42369:4,2021-10-04T10:20:00Z,27.2123,-90.2726,1343.0,6.1,303.7,-9999.0,'111111111,111111111,999999991'
BP,ioos:station:wmo:42369:4,2021-10-04T10:40:00Z,27.2123,-90.2726,1343.0,4.3,291.8,-9999.0,'111111111,111111111,999999991'
BP,ioos:station:wmo:42369:4,2021-10-04T11:00:00Z,27.2122,-90.2726,1343.0,4.3,288.9,-9999.0,'111111111,111111111,999999991'
BP,ioos:station:wmo:42369:4,2021-10-04T11:20:00Z,27.2122,-90.2726,1343.0,4.5,286.8,-9999.0,'111111111,111111111,999999991'
BP,ioos:station:wmo:42369:4,2021-10-04T11:40:00Z,27.2121,-90.2725,1343.0,4.4,275.2,-9999.0,'111111111,111111111,999999991'
BP,ioos:station:wmo:42369:4,2021-10-04T12:00:00Z,27.2121,-90.2725,1343.0,3.2,277.1,-9999.0,'111111111,111111111,999999991'
BP,ioos:station:wmo:42369:4,2021-10-04T12:20:00Z,27.2120,-90.2723,1343.0,4.6,248.4,-9999.0,'111111111,111111111,999999991'
BP,ioos:station:wmo:42369:4,2021-10-04T12:40:00Z,27.2120,-90.2723,1343.0,6.2,258.9,-9999.0,'111111111,111111111,999999991'
BP,ioos:station:wmo:42369:4,2021-10-04T13:00:00Z,27.2122,-90.2724,1343.0,8.7,247.0,-9999.0,'111111111,111111111,999999991'
BP,ioos:station:wmo:42369:4,2021-10-04T13:20:00Z,27.2121,-90.2724,1343.0,9.2,247.6,-9999.0,'111111111,111111111,999999991'
BP,ioos:station:wmo:42369:4,2021-10-04T13:40:00Z,27.2121,-90.2724,1343.0,8.1,246.6,-9999.0,'111111111,111111111,999999991'
BP,ioos:station:wmo:42369:4,2021-10-04T14:00:00Z,27.2121,-90.2724,1343.0,7.7,242.1,-9999.0,'111111111,111111111,999999991'
BP,ioos:station:wmo:42369:4,2021-10-04T14:20:00Z,27.2121,-90.2724,1343.0,8.6,248.2,-9999.0,'111111111,111111111,999999991'
BP,ioos:station:wmo:42369:4,2021-10-04T14:40:00Z,27.2121,-90.2723,1343.0,10.5,247.1,-9999.0,'111111111,111111111,999999991'
BP,ioos:station:wmo:42369:4,2021-10-04T15:00:00Z,27.2120,-90.2723,1343.0,11.2,244.6,-9999.0,'111111111,111111111,999999991'
BP,ioos:station:wmo:42369:4,2021-10-04T15:20:00Z,27.2119,-90.2723,1343.0,10.6,246.6,-9999.0,'111111111,111111111,999999991'
BP,ioos:station:wmo:42369:4,2021-10-04T16:00:00Z,27.2119,-90.2723,1343.0,8.8,243.7,-9999.0,'111111111,111111111,999999991'
BP,ioos:station:wmo:42369:4,2021-10-04T16:20:00Z,27.2119,-90.2722,1343.0,9.5,247.2,-9999.0,'111111111,111111111,999999991'
BP,ioos:station:wmo:42369:4,2021-10-04T16:40:00Z,27.2119,-90.2722,1343.0,9.4,255.8,-9999.0,'111111111,111111111,999999991'
BP,ioos:station:wmo:42369:4,2021-10-04T17:00:00Z,27.2118,-90.2722,1343.0,9.8,261.2,-9999.0,'111111111,111111111,999999991'
BP,ioos:station:wmo:42369:4,2021-10-04T17:20:00Z,27.2118,-90.2721,1343.0,11.4,250.4,-9999.0,'111111111,111111111,999999991'
BP,ioos:station:wmo:42369:4,2021-10-04T17:40:00Z,27.2118,-90.2721,1343.0,11.4,255.7,-9999.0,'111111111,111111111,999999991'
BP,ioos:station:wmo:42369:4,2021-10-04T18:00:00Z,27.2118,-90.2721,1343.0,13.0,252.1,-9999.0,'111111111,111111111,999999991'
BP,ioos:station:wmo:42369:4,2021-10-04T18:20:00Z,27.2118,-90.2721,1343.0,12.4,249.2,-9999.0,'111111111,111111111,999999991'
BP,ioos:station:wmo:42369:4,2021-10-04T18:40:00Z,27.2118,-90.2721,1343.0,14.0,253.4,-9999.0,'111111111,111111111,999999991'
BP,ioos:station:wmo:42369:4,2021-10-04T19:00:00Z,27.2118,-90.2721,1343.0,13.2,260.0,-9999.0,'111111111,111111111,999999991'
BP,ioos:station:wmo:42369:4,2021-10-04T19:20:00Z,27.2117,-90.2721,1343.0,13.8,260.4,-9999.0,'111111111,111111111,999999991'
BP,ioos:station:wmo:42369:4,2021-10-04T19:40:00Z,27.2117,-90.2721,1343.0,13.6,267.1,-9999.0,'111111111,111111111,999999991'
BP,ioos:station:wmo:42369:4,2021-10-04T20:00:00Z,27.2117,-90.2721,1343.0,11.8,271.9,-9999.0,'111111111,111111111,999999991'
BP,ioos:station:wmo:42369:4,2021-10-04T20:20:00Z,27.2117,-90.2721,1343.0,11.4,271.0,-9999.0,'111111111,111111111,999999991'
BP,ioos:station:wmo:42369:4,2021-10-04T20:40:00Z,27.2117,-90.2721,1343.0,9.6,274.8,-9999.0,'111111111,111111111,999999991'
BP,ioos:station:wmo:42369:4,2021-10-04T21:00:00Z,27.2117,-90.2721,1343.0,8.6,268.0,-9999.0,'111111111,111111111,999999991'
BP,ioos:station:wmo:42369:4,2021-10-04T21:20:00Z,27.2119,-90.2723,1343.0,8.3,270.0,-9999.0,'111111111,111111111,999999991'
BP,ioos:station:wmo:42369:4,2021-10-04T21:40:00Z,27.2120,-90.2724,1343.0,10.6,275.4,-9999.0,'111111111,111111111,999999991'
BP,ioos:station:wmo:42369:4,2021-10-04T22:00:00Z,27.2120,-90.2724,1343.0,11.3,281.2,-9999.0,'111111111,111111111,999999991'
BP,ioos:station:wmo:42369:4,2021-10-04T22:20:00Z,27.2122,-90.2726,1343.0,10.7,284.0,-9999.0,'111111111,111111111,999999991'
BP,ioos:station:wmo:42369:4,2021-10-04T22:40:00Z,27.2122,-90.2727,1343.0,9.6,285.0,-9999.0,'111111111,111111111,999999991'
BP,ioos:station:wmo:42369:4,2021-10-04T23:00:00Z,27.2123,-90.2727,1343.0,11.3,281.2,-9999.0,'111111111,111111111,999999991'
BP,ioos:station:wmo:42369:4,2021-10-04T23:20:00Z,27.2123,-90.2728,1343.0,9.6,285.0,-9999.0,'111111111,111111111,999999991'
BP,ioos:station:wmo:42369:4,2021-10-04T23:40:00Z,27.2123,-90.2728,1343.0,11.2,280.8,-9999.0,'111111111,111111111,999999991'
BP,ioos:station:wmo:42369:4,2021-10-05T00:00:00Z,27.2122,-90.2728,1343.0,10.3,283.0,-9999.0,'111111111,111111111,999999991'
BP,ioos:station:wmo:42369:4,2021-10-05T00:20:00Z,27.2122,-90.2728,1343.0,11.1,283.0,-9999.0,'111111111,111111111,999999991'
BP,ioos:station:wmo:42369:4,2021-10-05T00:40:00Z,27.2122,-90.2728,1343.0,9.5,287.1,-9999.0,'111111111,111111111,999999991'
BP,ioos:station:wmo:42369:4,2021-10-05T01:00:00Z,27.2122,-90.2728,1343.0,6.9,286.9,-9999.0,'111111111,111111111,999999991'
BP,ioos:station:wmo:42369:4,2021-10-05T01:20:00Z,27.2122,-90.2729,1343.0,7.7,287.5,-9999.0,'111111111,111111111,999999991'